StationID,Date,MaxTemp,MinTemp,Precipitation,Snowfall,SnowDepth
"CA001163840","1939-05-01",,,0.00,0.00,
"CA001163840","1939-05-02",75.92,39.92,0.00,0.00,
"CA001163840","1939-05-03",82.04,44.06,0.00,0.00,
"CA001163840","1939-05-04",57.92,50.00,15.00,0.00,
"CA001163840","1939-05-05",68.00,44.06,0.00,0.00,
"CA001163840","1939-05-06",66.92,48.02,18.00,0.00,
"CA001163840","1939-05-07",69.08,46.04,0.00,0.00,
"CA001163840","1939-05-08",68.00,51.08,0.00,0.00,
"CA001163840","1939-05-09",64.04,35.96,0.00,0.00,
"CA001163840","1939-05-10",71.96,30.92,0.00,0.00,
"CA001163840","1939-05-11",75.92,33.98,0.00,0.00,
"CA001163840","1939-05-12",84.02,37.94,0.00,0.00,
"CA001163840","1939-05-13",87.08,44.06,0.00,0.00,
"CA001163840","1939-05-14",89.06,50.00,0.00,0.00,
"CA001163840","1939-05-15",87.08,46.94,0.00,0.00,
"CA001163840","1939-05-16",78.98,60.08,0.00,0.00,
"CA001163840","1939-05-17",71.06,53.96,0.00,0.00,
"CA001163840","1939-05-18",64.94,44.06,23.00,0.00,
"CA001163840","1939-05-19",62.06,42.08,10.00,0.00,
"CA001163840","1939-05-20",69.08,37.04,0.00,0.00,
"CA001163840","1939-05-21",64.94,44.06,56.00,0.00,
"CA001163840","1939-05-22",66.92,48.92,33.00,0.00,
"CA001163840","1939-05-23",66.92,53.06,23.00,0.00,
"CA001163840","1939-05-24",75.92,44.06,0.00,0.00,
"CA001163840","1939-05-25",66.92,53.06,10.00,0.00,
"CA001163840","1939-05-26",71.96,44.96,0.00,0.00,
"CA001163840","1939-05-27",66.92,41.00,8.00,0.00,
"CA001163840","1939-05-28",80.06,53.96,0.00,0.00,
"CA001163840","1939-05-29",73.04,53.96,0.00,0.00,
"CA001163840","1939-05-30",59.00,48.02,0.00,0.00,
"CA001163840","1939-05-31",62.96,39.02,0.00,0.00,
"CA001163840","1939-06-01",64.94,44.96,0.00,0.00,
"CA001163840","1939-06-02",69.98,39.02,0.00,0.00,
"CA001163840","1939-06-03",64.04,42.98,71.00,0.00,
"CA001163840","1939-06-04",60.08,46.94,3.00,0.00,
"CA001163840","1939-06-05",66.02,42.98,0.00,0.00,
"CA001163840","1939-06-06",69.08,48.92,124.00,0.00,
"CA001163840","1939-06-07",66.02,50.00,13.00,0.00,
"CA001163840","1939-06-08",62.96,44.96,38.00,0.00,
"CA001163840","1939-06-09",69.98,46.04,41.00,0.00,
"CA001163840","1939-06-10",75.02,51.98,3.00,0.00,
"CA001163840","1939-06-11",64.94,48.02,36.00,0.00,
"CA001163840","1939-06-12",73.04,46.04,81.00,0.00,
"CA001163840","1939-06-13",64.94,51.08,46.00,0.00,
"CA001163840","1939-06-14",73.94,46.04,5.00,0.00,
"CA001163840","1939-06-15",64.94,53.96,107.00,0.00,
"CA001163840","1939-06-16",60.08,50.00,13.00,0.00,
"CA001163840","1939-06-17",69.08,50.00,25.00,0.00,
"CA001163840","1939-06-18",71.96,53.96,13.00,0.00,
"CA001163840","1939-06-19",69.98,55.04,53.00,0.00,
"CA001163840","1939-06-20",73.04,53.06,0.00,0.00,
"CA001163840","1939-06-21",77.00,55.04,0.00,0.00,
"CA001163840","1939-06-22",73.94,55.94,81.00,0.00,
"CA001163840","1939-06-23",73.94,53.06,132.00,0.00,
"CA001163840","1939-06-24",64.04,50.00,0.00,0.00,
"CA001163840","1939-06-25",69.98,51.08,0.00,0.00,
"CA001163840","1939-06-26",73.04,46.04,0.00,0.00,
"CA001163840","1939-06-27",77.00,46.94,0.00,0.00,
"CA001163840","1939-06-28",87.98,53.06,0.00,0.00,
"CA001163840","1939-06-29",89.06,57.92,0.00,0.00,
"CA001163840","1939-06-30",80.06,55.94,0.00,0.00,
"CA001163840","1939-07-01",77.00,59.00,0.00,0.00,
"CA001163840","1939-07-02",75.02,59.00,38.00,0.00,
"CA001163840","1939-07-03",66.92,53.96,13.00,0.00,
"CA001163840","1939-07-04",73.04,55.94,0.00,0.00,
"CA001163840","1939-07-05",77.00,50.00,0.00,0.00,
"CA001163840","1939-07-06",75.02,48.92,0.00,0.00,
"CA001163840","1939-07-07",75.02,48.02,0.00,0.00,
"CA001163840","1939-07-08",86.00,50.00,0.00,0.00,
"CA001163840","1939-07-09",73.04,48.02,0.00,0.00,
"CA001163840","1939-07-10",89.96,53.06,0.00,0.00,
"CA001163840","1939-07-11",78.98,60.08,0.00,0.00,
"CA001163840","1939-07-12",84.92,44.96,0.00,0.00,
"CA001163840","1939-07-13",80.96,46.94,0.00,0.00,
"CA001163840","1939-07-14",82.04,57.92,0.00,0.00,
"CA001163840","1939-07-15",69.08,57.92,13.00,0.00,
"CA001163840","1939-07-16",73.94,48.02,0.00,0.00,
"CA001163840","1939-07-17",78.08,46.04,0.00,0.00,
"CA001163840","1939-07-18",78.98,50.00,0.00,0.00,
"CA001163840","1939-07-19",71.96,55.04,0.00,0.00,
"CA001163840","1939-07-20",73.94,53.06,0.00,0.00,
"CA001163840","1939-07-21",84.02,55.04,0.00,0.00,
"CA001163840","1939-07-22",87.98,55.04,0.00,0.00,
"CA001163840","1939-07-23",93.02,57.02,3.00,0.00,
"CA001163840","1939-07-24",91.04,62.96,0.00,0.00,
"CA001163840","1939-07-25",96.08,55.94,0.00,0.00,
"CA001163840","1939-07-26",96.98,59.00,0.00,0.00,
"CA001163840","1939-07-27",105.98,62.06,0.00,0.00,
"CA001163840","1939-07-28",96.08,66.92,0.00,0.00,
"CA001163840","1939-07-29",89.96,59.00,0.00,0.00,
"CA001163840","1939-07-30",91.94,55.94,33.00,0.00,
"CA001163840","1939-07-31",73.04,51.98,0.00,0.00,
"CA001163840","1939-08-01",82.94,48.02,0.00,0.00,
"CA001163840","1939-08-02",89.06,53.96,0.00,0.00,
"CA001163840","1939-08-03",98.06,53.96,0.00,0.00,
"CA001163840","1939-08-04",95.00,55.94,0.00,0.00,
"CA001163840","1939-08-05",68.00,57.92,5.00,0.00,
"CA001163840","1939-08-06",73.94,44.96,0.00,0.00,
"CA001163840","1939-08-07",82.04,42.08,0.00,0.00,
"CA001163840","1939-08-08",91.04,48.92,0.00,0.00,
"CA001163840","1939-08-09",93.02,53.96,0.00,0.00,
"CA001163840","1939-08-10",98.96,53.06,0.00,0.00,
"CA001163840","1939-08-11",96.08,55.94,0.00,0.00,
"CA001163840","1939-08-12",82.94,62.96,0.00,0.00,
"CA001163840","1939-08-13",87.08,50.00,0.00,0.00,
"CA001163840","1939-08-14",84.92,50.00,0.00,0.00,
"CA001163840","1939-08-15",78.08,51.98,0.00,0.00,
"CA001163840","1939-08-16",87.08,48.02,0.00,0.00,
"CA001163840","1939-08-17",78.98,51.98,0.00,0.00,
"CA001163840","1939-08-18",78.98,42.98,0.00,0.00,
"CA001163840","1939-08-19",84.02,44.06,0.00,0.00,
"CA001163840","1939-08-20",89.06,46.04,0.00,0.00,
"CA001163840","1939-08-21",89.06,55.94,0.00,0.00,
"CA001163840","1939-08-22",87.08,46.94,0.00,0.00,
"CA001163840","1939-08-23",91.04,51.08,0.00,0.00,
"CA001163840","1939-08-24",96.08,55.94,0.00,0.00,
"CA001163840","1939-08-25",77.00,53.96,0.00,0.00,
"CA001163840","1939-08-26",82.94,55.94,0.00,0.00,
"CA001163840","1939-08-27",87.08,51.08,0.00,0.00,
"CA001163840","1939-08-28",80.06,62.96,0.00,0.00,
"CA001163840","1939-08-29",75.92,51.98,0.00,0.00,
"CA001163840","1939-08-30",82.94,50.00,0.00,0.00,
"CA001163840","1939-08-31",73.94,51.98,0.00,0.00,
"CA001163840","1939-09-01",82.04,51.98,0.00,0.00,
"CA001163840","1939-09-02",82.04,59.00,0.00,0.00,
"CA001163840","1939-09-03",69.98,53.06,0.00,0.00,
"CA001163840","1939-09-04",73.04,53.96,5.00,0.00,
"CA001163840","1939-09-05",71.96,46.94,43.00,0.00,
"CA001163840","1939-09-06",69.98,39.02,0.00,0.00,
"CA001163840","1939-09-07",75.92,48.92,0.00,0.00,
"CA001163840","1939-09-08",75.92,55.04,0.00,0.00,
"CA001163840","1939-09-09",75.92,41.00,0.00,0.00,
"CA001163840","1939-09-10",77.00,46.94,0.00,0.00,
"CA001163840","1939-09-11",69.98,50.00,33.00,0.00,
"CA001163840","1939-09-12",64.04,46.04,13.00,0.00,
"CA001163840","1939-09-13",66.92,33.98,0.00,0.00,
"CA001163840","1939-09-14",69.08,42.08,0.00,0.00,
"CA001163840","1939-09-15",69.98,51.98,0.00,0.00,
"CA001163840","1939-09-16",82.94,39.92,0.00,0.00,
"CA001163840","1939-09-17",80.06,57.92,0.00,0.00,
"CA001163840","1939-09-18",75.02,48.92,0.00,0.00,
"CA001163840","1939-09-19",73.94,44.96,0.00,0.00,
"CA001163840","1939-09-20",78.08,39.02,0.00,0.00,
"CA001163840","1939-09-21",84.92,55.94,0.00,0.00,
"CA001163840","1939-09-22",84.02,46.04,0.00,0.00,
"CA001163840","1939-09-23",78.98,44.96,0.00,0.00,
"CA001163840","1939-09-24",78.98,48.92,0.00,0.00,
"CA001163840","1939-09-25",75.02,57.02,0.00,0.00,
"CA001163840","1939-09-26",75.92,55.94,0.00,0.00,
"CA001163840","1939-09-27",75.02,64.94,51.00,0.00,
"CA001163840","1939-09-28",66.02,33.08,0.00,0.00,
"CA001163840","1939-09-29",75.02,33.98,0.00,0.00,
"CA001163840","1939-09-30",73.94,33.98,0.00,0.00,
"CA001163840","1939-10-01",64.94,42.08,0.00,0.00,
"CA001163840","1939-10-02",68.00,37.94,0.00,0.00,
"CA001163840","1939-10-03",62.06,37.94,0.00,0.00,
"CA001163840","1939-10-04",71.96,39.02,23.00,0.00,
"CA001163840","1939-10-05",60.08,39.02,5.00,0.00,
"CA001163840","1939-10-06",48.02,26.06,0.00,0.00,
"CA001163840","1939-10-07",46.94,26.96,0.00,0.00,
"CA001163840","1939-10-08",53.06,24.98,0.00,0.00,
"CA001163840","1939-10-09",60.08,35.96,0.00,0.00,
"CA001163840","1939-10-10",60.98,33.98,0.00,0.00,
"CA001163840","1939-10-11",66.92,37.94,0.00,0.00,
"CA001163840","1939-10-12",64.04,33.08,0.00,0.00,
"CA001163840","1939-10-13",62.06,32.00,0.00,0.00,
"CA001163840","1939-10-14",57.02,39.02,0.00,0.00,
"CA001163840","1939-10-15",55.94,32.00,0.00,0.00,
"CA001163840","1939-10-16",50.00,35.96,0.00,0.00,
"CA001163840","1939-10-17",66.02,41.00,0.00,0.00,
"CA001163840","1939-10-18",62.06,41.00,0.00,0.00,
"CA001163840","1939-10-19",73.04,46.04,0.00,0.00,
"CA001163840","1939-10-20",71.06,48.02,0.00,0.00,
"CA001163840","1939-10-21",73.04,46.04,0.00,0.00,
"CA001163840","1939-10-22",64.04,42.98,0.00,0.00,
"CA001163840","1939-10-23",51.98,39.92,142.00,0.00,
"CA001163840","1939-10-24",44.96,26.06,0.00,0.00,
"CA001163840","1939-10-25",37.04,15.98,0.00,0.00,
"CA001163840","1939-10-26",39.92,28.94,38.00,38.00,
"CA001163840","1939-10-27",44.06,28.04,0.00,0.00,
"CA001163840","1939-10-28",57.02,32.00,0.00,0.00,
"CA001163840","1939-10-29",60.08,28.94,0.00,0.00,
"CA001163840","1939-10-30",51.98,28.04,0.00,0.00,
"CA001163840","1939-10-31",46.04,30.02,0.00,0.00,
"CA001163840","1939-11-01",46.04,32.00,0.00,0.00,
"CA001163840","1939-11-02",46.04,33.08,0.00,0.00,
"CA001163840","1939-11-03",55.04,26.96,0.00,0.00,
"CA001163840","1939-11-04",53.06,39.02,0.00,0.00,
"CA001163840","1939-11-05",51.98,39.92,0.00,0.00,
"CA001163840","1939-11-06",53.96,33.08,0.00,0.00,
"CA001163840","1939-11-07",46.04,35.96,81.00,0.00,
"CA001163840","1939-11-08",48.92,30.92,30.00,0.00,
"CA001163840","1939-11-09",44.06,24.98,0.00,0.00,
"CA001163840","1939-11-10",55.04,21.92,0.00,0.00,
"CA001163840","1939-11-11",57.02,37.04,0.00,0.00,
"CA001163840","1939-11-12",57.02,39.02,0.00,0.00,
"CA001163840","1939-11-13",55.94,39.02,0.00,0.00,
"CA001163840","1939-11-14",57.92,39.92,0.00,0.00,
"CA001163840","1939-11-15",55.04,50.00,0.00,0.00,
"CA001163840","1939-11-16",53.96,42.98,0.00,0.00,
"CA001163840","1939-11-17",50.00,42.08,0.00,0.00,
"CA001163840","1939-11-18",50.00,32.00,0.00,0.00,
"CA001163840","1939-11-19",53.06,33.98,0.00,0.00,
"CA001163840","1939-11-20",51.98,30.92,0.00,0.00,
"CA001163840","1939-11-21",53.06,39.02,0.00,0.00,
"CA001163840","1939-11-22",51.98,35.06,0.00,0.00,
"CA001163840","1939-11-23",55.04,32.00,0.00,0.00,
"CA001163840","1939-11-24",57.02,28.04,0.00,0.00,
"CA001163840","1939-11-25",48.92,24.98,0.00,0.00,
"CA001163840","1939-11-26",39.02,33.98,0.00,0.00,
"CA001163840","1939-11-27",42.08,28.94,0.00,0.00,
"CA001163840","1939-11-28",39.02,30.92,0.00,0.00,
"CA001163840","1939-11-29",50.00,32.00,0.00,0.00,
"CA001163840","1939-11-30",50.00,41.00,0.00,0.00,
"CA001163840","1939-12-01",51.98,37.04,0.00,0.00,
"CA001163840","1939-12-02",55.04,39.92,0.00,0.00,
"CA001163840","1939-12-03",55.94,39.92,0.00,0.00,
"CA001163840","1939-12-04",55.04,39.02,0.00,0.00,
"CA001163840","1939-12-05",62.06,39.92,0.00,0.00,
"CA001163840","1939-12-06",62.06,33.98,0.00,0.00,
"CA001163840","1939-12-07",51.98,42.08,0.00,0.00,
"CA001163840","1939-12-08",53.96,44.06,10.00,0.00,
"CA001163840","1939-12-09",51.98,35.96,0.00,0.00,
"CA001163840","1939-12-10",50.00,37.94,15.00,0.00,
"CA001163840","1939-12-11",53.06,32.00,0.00,0.00,
"CA001163840","1939-12-12",51.98,35.96,0.00,0.00,
"CA001163840","1939-12-13",46.94,35.06,0.00,0.00,
"CA001163840","1939-12-14",46.04,35.06,0.00,0.00,
"CA001163840","1939-12-15",50.00,37.04,0.00,0.00,
"CA001163840","1939-12-16",53.06,33.08,0.00,0.00,
"CA001163840","1939-12-17",50.00,32.00,0.00,0.00,
"CA001163840","1939-12-18",39.92,24.08,0.00,0.00,
"CA001163840","1939-12-19",44.96,32.00,114.00,0.00,
"CA001163840","1939-12-20",48.02,35.06,0.00,0.00,
"CA001163840","1939-12-21",44.96,35.06,0.00,0.00,
"CA001163840","1939-12-22",42.08,30.92,0.00,0.00,
"CA001163840","1939-12-23",35.06,19.94,0.00,0.00,
"CA001163840","1939-12-24",30.02,19.94,0.00,0.00,
"CA001163840","1939-12-25",28.94,19.94,13.00,13.00,
"CA001163840","1939-12-26",30.02,21.02,0.00,0.00,
"CA001163840","1939-12-27",33.08,23.00,0.00,0.00,
"CA001163840","1939-12-28",33.98,24.98,13.00,13.00,
"CA001163840","1939-12-29",33.08,26.06,0.00,0.00,
"CA001163840","1939-12-30",37.94,21.92,0.00,0.00,
"CA001163840","1939-12-31",39.92,32.00,0.00,0.00,
"CA001163840","1940-01-01",37.04,17.06,5.00,5.00,
"CA001163840","1940-01-02",44.06,33.08,20.00,0.00,
"CA001163840","1940-01-03",41.00,33.08,25.00,0.00,
"CA001163840","1940-01-04",39.92,32.00,13.00,0.00,
"CA001163840","1940-01-05",41.00,28.04,0.00,0.00,
"CA001163840","1940-01-06",39.02,24.08,0.00,0.00,
"CA001163840","1940-01-07",32.00,21.92,0.00,0.00,
"CA001163840","1940-01-08",30.02,24.98,0.00,0.00,
"CA001163840","1940-01-09",28.04,17.06,3.00,3.00,
"CA001163840","1940-01-10",28.94,19.04,20.00,20.00,
"CA001163840","1940-01-11",28.04,12.02,3.00,3.00,
"CA001163840","1940-01-12",32.00,12.02,0.00,0.00,
"CA001163840","1940-01-13",32.00,21.02,0.00,0.00,
"CA001163840","1940-01-14",35.96,19.94,0.00,0.00,
"CA001163840","1940-01-15",37.04,19.94,5.00,0.00,
"CA001163840","1940-01-16",37.04,21.02,0.00,0.00,
"CA001163840","1940-01-17",39.02,28.04,0.00,0.00,
"CA001163840","1940-01-18",39.02,14.00,0.00,0.00,
"CA001163840","1940-01-19",23.00,6.98,0.00,0.00,
"CA001163840","1940-01-20",24.98,12.92,0.00,0.00,
"CA001163840","1940-01-21",30.02,10.94,0.00,0.00,
"CA001163840","1940-01-22",28.04,12.02,0.00,0.00,
"CA001163840","1940-01-23",28.04,12.92,0.00,0.00,
"CA001163840","1940-01-24",26.06,-0.04,0.00,0.00,
"CA001163840","1940-01-25",19.04,10.94,8.00,8.00,
"CA001163840","1940-01-26",26.96,12.92,3.00,3.00,
"CA001163840","1940-01-27",39.92,19.94,5.00,5.00,
"CA001163840","1940-01-28",44.96,33.08,0.00,0.00,
"CA001163840","1940-01-29",46.94,32.00,0.00,0.00,
"CA001163840","1940-01-30",41.00,26.06,0.00,0.00,
"CA001163840","1940-01-31",37.04,26.96,0.00,0.00,
"CA001163840","1940-02-01",32.00,21.92,0.00,0.00,
"CA001163840","1940-02-02",26.06,19.94,0.00,0.00,
"CA001163840","1940-02-03",24.98,19.04,0.00,0.00,
"CA001163840","1940-02-04",30.02,21.02,13.00,13.00,
"CA001163840","1940-02-05",37.04,26.96,8.00,8.00,
"CA001163840","1940-02-06",37.04,30.02,76.00,76.00,
"CA001163840","1940-02-07",39.02,30.02,33.00,0.00,
"CA001163840","1940-02-08",39.92,21.92,3.00,3.00,
"CA001163840","1940-02-09",42.98,33.98,0.00,0.00,
"CA001163840","1940-02-10",48.02,30.92,0.00,0.00,
"CA001163840","1940-02-11",46.04,35.06,0.00,0.00,
"CA001163840","1940-02-12",46.94,21.92,0.00,0.00,
"CA001163840","1940-02-13",44.06,33.08,0.00,0.00,
"CA001163840","1940-02-14",44.06,28.94,0.00,0.00,
"CA001163840","1940-02-15",44.06,24.98,0.00,0.00,
"CA001163840","1940-02-16",42.08,28.04,0.00,0.00,
"CA001163840","1940-02-17",44.96,33.08,0.00,0.00,
"CA001163840","1940-02-18",42.98,32.00,0.00,0.00,
"CA001163840","1940-02-19",39.92,24.08,0.00,0.00,
"CA001163840","1940-02-20",44.96,26.96,0.00,0.00,
"CA001163840","1940-02-21",44.96,21.92,0.00,0.00,
"CA001163840","1940-02-22",35.96,28.94,0.00,0.00,
"CA001163840","1940-02-23",33.98,23.00,5.00,5.00,
"CA001163840","1940-02-24",39.02,12.92,5.00,5.00,
"CA001163840","1940-02-25",42.08,24.08,5.00,5.00,
"CA001163840","1940-02-26",42.08,19.94,0.00,0.00,
"CA001163840","1940-02-27",33.98,17.96,0.00,0.00,
"CA001163840","1940-02-28",44.06,26.06,5.00,5.00,
"CA001163840","1940-02-29",53.06,33.98,5.00,0.00,
"CA001163840","1940-03-01",55.94,39.02,0.00,0.00,
"CA001163840","1940-03-02",53.96,30.02,0.00,0.00,
"CA001163840","1940-03-03",55.04,32.00,13.00,0.00,
"CA001163840","1940-03-04",42.98,26.96,0.00,0.00,
"CA001163840","1940-03-05",53.06,26.96,15.00,0.00,
"CA001163840","1940-03-06",50.00,28.94,0.00,0.00,
"CA001163840","1940-03-07",46.94,33.98,30.00,0.00,
"CA001163840","1940-03-08",50.00,30.02,0.00,0.00,
"CA001163840","1940-03-09",44.06,30.02,36.00,0.00,
"CA001163840","1940-03-10",42.98,30.02,0.00,0.00,
"CA001163840","1940-03-11",46.04,24.98,0.00,0.00,
"CA001163840","1940-03-12",42.08,23.00,0.00,0.00,
"CA001163840","1940-03-13",48.92,37.04,0.00,0.00,
"CA001163840","1940-03-14",53.06,39.02,0.00,0.00,
"CA001163840","1940-03-15",57.02,37.04,0.00,0.00,
"CA001163840","1940-03-16",44.96,30.92,5.00,0.00,
"CA001163840","1940-03-17",60.08,35.06,0.00,0.00,
"CA001163840","1940-03-18",62.06,37.04,0.00,0.00,
"CA001163840","1940-03-19",64.04,26.96,0.00,0.00,
"CA001163840","1940-03-20",57.02,26.06,0.00,0.00,
"CA001163840","1940-03-21",64.94,24.98,0.00,0.00,
"CA001163840","1940-03-22",64.04,30.92,0.00,0.00,
"CA001163840","1940-03-23",64.94,35.06,0.00,0.00,
"CA001163840","1940-03-24",64.94,26.06,0.00,0.00,
"CA001163840","1940-03-25",62.96,21.92,0.00,0.00,
"CA001163840","1940-03-26",55.94,37.04,25.00,0.00,
"CA001163840","1940-03-27",62.06,39.02,0.00,0.00,
"CA001163840","1940-03-28",57.02,33.08,0.00,0.00,
"CA001163840","1940-03-29",50.00,33.98,18.00,0.00,
"CA001163840","1940-03-30",53.06,39.92,51.00,0.00,
"CA001163840","1940-03-31",55.94,50.00,0.00,0.00,
"CA001163840","1940-04-01",62.06,30.92,0.00,0.00,
"CA001163840","1940-04-02",55.04,33.98,0.00,0.00,
"CA001163840","1940-04-03",55.94,33.08,0.00,0.00,
"CA001163840","1940-04-04",62.96,32.00,0.00,0.00,
"CA001163840","1940-04-05",62.96,39.92,23.00,0.00,
"CA001163840","1940-04-06",64.04,30.02,13.00,0.00,
"CA001163840","1940-04-07",62.06,55.94,25.00,0.00,
"CA001163840","1940-04-08",62.96,44.96,8.00,0.00,
"CA001163840","1940-04-09",62.06,42.98,0.00,0.00,
"CA001163840","1940-04-10",57.02,41.00,5.00,0.00,
"CA001163840","1940-04-11",62.06,35.06,0.00,0.00,
"CA001163840","1940-04-12",68.00,44.96,0.00,0.00,
"CA001163840","1940-04-13",69.98,48.92,0.00,0.00,
"CA001163840","1940-04-14",64.94,39.92,0.00,0.00,
"CA001163840","1940-04-15",62.96,39.92,0.00,0.00,
"CA001163840","1940-04-16",60.08,30.92,0.00,0.00,
"CA001163840","1940-04-17",68.00,44.06,0.00,0.00,
"CA001163840","1940-04-18",66.92,46.04,0.00,0.00,
"CA001163840","1940-04-19",64.04,32.00,0.00,0.00,
"CA001163840","1940-04-20",62.06,39.02,3.00,0.00,
"CA001163840","1940-04-21",64.04,35.06,0.00,0.00,
"CA001163840","1940-04-22",71.06,33.08,0.00,0.00,
"CA001163840","1940-04-23",68.00,48.92,0.00,0.00,
"CA001163840","1940-04-24",68.00,44.96,0.00,0.00,
"CA001163840","1940-04-25",64.94,30.92,0.00,0.00,
"CA001163840","1940-04-26",62.06,44.06,28.00,0.00,
"CA001163840","1940-04-27",60.08,39.02,13.00,0.00,
"CA001163840","1940-04-28",60.98,39.02,0.00,0.00,
"CA001163840","1940-04-29",60.98,33.98,15.00,0.00,
"CA001163840","1940-04-30",62.96,28.94,0.00,0.00,
"CA001163840","1940-05-01",66.02,42.08,0.00,0.00,
"CA001163840","1940-05-02",71.96,50.00,0.00,0.00,
"CA001163840","1940-05-03",68.00,32.00,0.00,0.00,
"CA001163840","1940-05-04",66.92,37.94,25.00,0.00,
"CA001163840","1940-05-05",64.94,41.00,127.00,0.00,
"CA001163840","1940-05-06",64.94,42.08,64.00,0.00,
"CA001163840","1940-05-07",68.00,37.94,3.00,0.00,
"CA001163840","1940-05-08",66.02,48.92,0.00,0.00,
"CA001163840","1940-05-09",80.96,42.08,0.00,0.00,
"CA001163840","1940-05-10",80.06,53.96,0.00,0.00,
"CA001163840","1940-05-11",73.94,39.92,0.00,0.00,
"CA001163840","1940-05-12",71.96,37.04,5.00,0.00,
"CA001163840","1940-05-13",80.96,41.00,0.00,0.00,
"CA001163840","1940-05-14",69.98,48.92,0.00,0.00,
"CA001163840","1940-05-15",69.98,46.94,0.00,0.00,
"CA001163840","1940-05-16",68.00,50.00,13.00,0.00,
"CA001163840","1940-05-17",77.00,42.08,0.00,0.00,
"CA001163840","1940-05-18",75.02,48.92,0.00,0.00,
"CA001163840","1940-05-19",73.04,51.98,0.00,0.00,
"CA001163840","1940-05-20",78.08,35.96,0.00,0.00,
"CA001163840","1940-05-21",84.92,44.96,0.00,0.00,
"CA001163840","1940-05-22",87.08,48.92,0.00,0.00,
"CA001163840","1940-05-23",91.94,46.94,0.00,0.00,
"CA001163840","1940-05-24",78.08,51.08,0.00,0.00,
"CA001163840","1940-05-25",75.02,48.02,56.00,0.00,
"CA001163840","1940-05-26",59.00,33.98,0.00,0.00,
"CA001163840","1940-05-27",78.08,39.92,13.00,0.00,
"CA001163840","1940-05-28",78.98,39.02,0.00,0.00,
"CA001163840","1940-05-29",82.04,42.08,0.00,0.00,
"CA001163840","1940-05-30",80.96,44.96,0.00,0.00,
"CA001163840","1940-05-31",71.96,53.96,84.00,0.00,
"CA001163840","1940-06-01",64.04,46.04,5.00,0.00,
"CA001163840","1940-06-02",68.00,42.98,20.00,0.00,
"CA001163840","1940-06-03",69.98,50.00,0.00,0.00,
"CA001163840","1940-06-04",66.02,46.04,5.00,0.00,
"CA001163840","1940-06-05",69.98,42.98,0.00,0.00,
"CA001163840","1940-06-06",62.06,48.02,43.00,0.00,
"CA001163840","1940-06-07",69.98,48.02,18.00,0.00,
"CA001163840","1940-06-08",80.06,48.92,0.00,0.00,
"CA001163840","1940-06-09",75.02,39.02,0.00,0.00,
"CA001163840","1940-06-10",82.04,46.94,0.00,0.00,
"CA001163840","1940-06-11",84.02,53.96,0.00,0.00,
"CA001163840","1940-06-12",89.96,59.00,0.00,0.00,
"CA001163840","1940-06-13",84.92,55.94,0.00,0.00,
"CA001163840","1940-06-14",75.92,42.98,0.00,0.00,
"CA001163840","1940-06-15",80.06,48.92,0.00,0.00,
"CA001163840","1940-06-16",78.98,55.94,0.00,0.00,
"CA001163840","1940-06-17",80.06,46.94,0.00,0.00,
"CA001163840","1940-06-18",89.96,53.96,0.00,0.00,
"CA001163840","1940-06-19",91.04,53.06,0.00,0.00,
"CA001163840","1940-06-20",87.08,50.00,0.00,0.00,
"CA001163840","1940-06-21",75.02,51.08,0.00,0.00,
"CA001163840","1940-06-22",80.06,53.06,0.00,0.00,
"CA001163840","1940-06-23",84.02,55.04,0.00,0.00,
"CA001163840","1940-06-24",80.06,50.00,0.00,0.00,
"CA001163840","1940-06-25",89.06,53.96,0.00,0.00,
"CA001163840","1940-06-26",84.92,46.94,0.00,0.00,
"CA001163840","1940-06-27",78.98,39.02,0.00,0.00,
"CA001163840","1940-06-28",84.92,44.96,0.00,0.00,
"CA001163840","1940-06-29",87.98,53.96,0.00,0.00,
"CA001163840","1940-06-30",87.08,48.02,0.00,0.00,
"CA001163840","1940-07-01",95.00,55.94,0.00,0.00,
"CA001163840","1940-07-02",84.92,66.92,0.00,0.00,
"CA001163840","1940-07-03",84.02,48.02,0.00,0.00,
"CA001163840","1940-07-04",84.92,51.98,0.00,0.00,
"CA001163840","1940-07-05",82.94,55.94,0.00,0.00,
"CA001163840","1940-07-06",78.98,46.04,0.00,0.00,
"CA001163840","1940-07-07",86.00,46.94,0.00,0.00,
"CA001163840","1940-07-08",82.04,53.06,0.00,0.00,
"CA001163840","1940-07-09",91.94,51.08,0.00,0.00,
"CA001163840","1940-07-10",84.92,53.96,0.00,0.00,
"CA001163840","1940-07-11",93.02,60.98,0.00,0.00,
"CA001163840","1940-07-12",96.08,53.96,64.00,0.00,
"CA001163840","1940-07-13",80.06,62.96,38.00,0.00,
"CA001163840","1940-07-14",86.00,59.00,0.00,0.00,
"CA001163840","1940-07-15",91.94,57.02,25.00,0.00,
"CA001163840","1940-07-16",86.00,64.04,76.00,0.00,
"CA001163840","1940-07-17",82.94,53.96,0.00,0.00,
"CA001163840","1940-07-18",87.08,57.02,0.00,0.00,
"CA001163840","1940-07-19",87.98,55.04,0.00,0.00,
"CA001163840","1940-07-20",82.04,55.04,5.00,0.00,
"CA001163840","1940-07-21",87.98,60.98,25.00,0.00,
"CA001163840","1940-07-22",82.04,57.02,5.00,0.00,
"CA001163840","1940-07-23",80.96,59.00,10.00,0.00,
"CA001163840","1940-07-24",78.98,57.92,18.00,0.00,
"CA001163840","1940-07-25",78.08,57.92,0.00,0.00,
"CA001163840","1940-07-26",71.96,57.92,140.00,0.00,
"CA001163840","1940-07-27",80.06,50.00,0.00,0.00,
"CA001163840","1940-07-28",82.04,69.98,0.00,0.00,
"CA001163840","1940-07-29",80.96,39.92,0.00,0.00,
"CA001163840","1940-07-30",73.94,46.04,0.00,0.00,
"CA001163840","1940-07-31",73.94,41.00,0.00,0.00,
"CA001163840","1940-08-01",73.04,48.92,10.00,0.00,
"CA001163840","1940-08-02",80.06,46.04,0.00,0.00,
"CA001163840","1940-08-03",78.08,55.04,0.00,0.00,
"CA001163840","1940-08-04",78.98,50.00,0.00,0.00,
"CA001163840","1940-08-05",84.92,53.06,0.00,0.00,
"CA001163840","1940-08-06",93.02,51.98,0.00,0.00,
"CA001163840","1940-08-07",93.02,51.08,0.00,0.00,
"CA001163840","1940-08-08",91.94,62.06,0.00,0.00,
"CA001163840","1940-08-09",89.96,60.98,0.00,0.00,